Probability
0 0 0 0 0 0 0 0 0 0 0 0 0 0 0 0 0 0 0 0 0 0 0 0 0 0 0 0 0 0 0 0 0 0 0 0 0 0 0 0 0 0 0
0 0 0 0 0 0 0 0 0 0 0 0 0 0 0 0 0 0 0 0 0 0 0 0 0 0 0 0 0 0 0 0 0 0 0 0 0 0 0 0 0 0 0
0 0 0 0 0 0 0 0 0 0 0 0 0 0 0 0 0 0 0 0 0 0 0 0 0 0 0 0 0 0 0 0 0 0 0 0 0 0 0 0 0 0 0
0 0 0 0 0 0 0 0 0 0 0 0 0 0 0 0 0 0 0 0 0 0 0 0 0 0 0 0 0 0 0 0 0 0 0 0 0 0 0 0 0 0 0
0 0 0 0 0 0 0 0 0 0 0 0 0 0 0 0 0 0 0 0 0 0 0 0 0 0 0 0 0 0 0 0 0 0 0 0 0 0 0 0 0 0 0
0 0 0 0 0 0 0 0 0 0 0 0 0 0 0 0 0 0 0 0 0 0 0 0 0 0 0 0 0 0 0 0 0 0 0 0 0 0 0 0 0 0 0
0 0 0 0 0 0 0 0 0 0 0 0 0 0 0 0 0 0 0 0 0 0 0 0 0 0 0 0 0 0 0 0 0 0 0 0 0 0 0 0 0 0 0
0 0 0 0 0 0 0 0 0 0 0 0 0 0 0 0 0 0 0 0 0 0 0 0 0 0 0 0 0 0 0 0 0 0 0 0 0 0 0 0 0 0 0
0 0 0 0 0 0 0 0 0 0 0 0 0 0 0 0 0 0 0 0 0 0 0 0 0 0 0 0 0 0 0 0 0 0 0 0 0 0 0 0 0 0 0
0 0 0 0 0 0 0 0 0 0 0 0 0 0 0 0 0 0 0 0 0 0 0 0 0 0 0 0 0 0 0 0 0 0 0 0 0 0 0 0 0 0 0
0 0 0 0 0 0 0 0 0 0 0 0 0 0 0 0 0 0 0 0 0 0 0 0 0 0 0 0 0 0 0 0 0 0 0 0 0 0 0 0 0 0 0
0 0 0 0 0 0 0 0 0 0 0 0 0 0 0 0 0 0 0 0 0 0 0 0 0 0 0 0 0 0 0 0 0 0 0 0 0 0 0 0 0 0 0
0 0 0 0 0 0 0 0 0 0 0 0 0 0 0 0 0 0 0 0 0 0 0 0 0 0 0 0 0 0 0 0 0 0 0 0 0 0 0 0 0 0 0
0 0 0 0 0 0 0 0 0 0 0 0 0 0 0 0 0 0 0 0 0 0 0 0 0 0 0 0 0 0 0 0 0 0 0 0 0 0 0 0 0 0 0
0 0 0 0 0 0 0 0 0 0 0 0 0 0 0 0 0 0 0 0 0 0 0 0 0 0 0 0 0 0 0 0 0 0 0 0 0 0 0 0 0 0 0
0 0 0 0 0 0 0 0 0 0 0 0 0 0 0 0 0 0 0 0 0 0 0 0 0 0 0 0 0 0 0 0 0 0 0 0 0 0 0 0 0 0 0
0 0 0 0 0 0 0 0 0 0 0 0 0 0 0 0 0 0 0 0 0 0 0 0 0 0 0 0 0 0 0 0 0 0 0 0 0 0 0 0 0 0 0
0 0 0 0 0 0 0 0 0 0 0 0 0 0 0 0 0 0 0 0 0 0 0 0 0 0 0 0 0 0 0 0 0 0 0 0 0 0 0 0 0 0 0
1 1 0 0 0 0 0 0 0 0 0 0 0 0 0 0 0 0 0 0 0 0 0 0 0 0 0 0 0 0 0 0 0 0 0 0 0 0 0 0 0 0 0
2 1 0 0 0 0 0 0 0 0 0 0 0 0 0 0 0 0 0 0 0 0 0 0 0 0 0 0 0 0 0 0 0 0 0 0 0 0 0 0 0 0 0
1 1 0 0 0 0 0 0 0 0 0 0 0 0 0 0 0 0 0 0 0 0 0 0 0 0 0 0 0 0 0 0 0 0 0 0 0 0 0 0 0 0 0
0 0 0 0 0 0 0 0 0 0 0 0 0 0 0 0 0 0 0 0 0 0 0 0 0 0 0 0 0 0 0 0 0 0 0 0 0 0 0 0 0 0 0
0 0 0 0 0 0 0 0 0 0 0 0 0 0 0 0 0 0 0 0 0 0 0 0 0 0 0 0 0 0 0 0 0 0 0 0 0 0 0 0 0 0 0
0 0 0 0 0 0 0 0 0 0 0 0 0 0 0 0 0 0 0 0 0 0 0 0 0 0 0 0 0 0 0 0 0 0 0 0 0 0 0 0 0 0 0
0 0 0 0 0 0 0 0 0 0 0 0 0 0 0 0 0 0 0 0 0 0 0 0 0 0 0 0 0 0 0 0 0 0 0 0 0 0 0 0 0 0 0
0 0 0 0 0 0 0 0 0 0 0 0 0 0 0 0 0 0 0 0 0 0 0 0 0 0 0 0 0 0 0 0 0 0 0 0 0 0 0 0 0 0 0
Wind_Speed
7 6 5 5 6 5 6 5 5 5 5 4 3 3 3 2 1 1 1 2 2 2 1 2 3 4 5 6 7 7 7 7 7 6 6 6 7 7 7 8 8 9 9
7 7 7 6 6 6 6 6 6 5 4 4 4 4 3 3 2 2 2 2 1 1 0 2 3 3 4 5 6 6 6 7 6 6 5 5 5 6 6 6 7 7 7
9 8 7 7 7 7 7 6 6 5 5 5 5 5 4 4 4 4 3 3 2 2 2 2 3 4 4 5 6 7 7 7 6 6 5 5 5 5 5 5 5 5 6
11 9 7 8 8 7 7 7 6 6 6 6 5 5 5 4 6 5 5 5 4 3 4 4 4 5 6 6 7 7 8 7 7 7 6 6 5 5 5 5 4 4 4
12 10 8 8 9 8 8 7 7 7 7 6 6 5 5 5 6 6 7 7 6 5 5 4 5 6 7 9 9 9 9 9 9 8 8 7 7 6 6 5 4 3 3
13 11 9 10 10 8 9 9 9 8 7 6 5 5 6 6 6 7 8 7 6 7 7 7 6 6 8 10 11 11 11 11 11 11 10 10 9 8 8 7 6 5 3
14 13 10 11 10 10 11 11 10 10 8 6 5 5 6 8 9 8 7 7 8 8 8 9 7 6 6 11 13 14 14 14 14 13 12 12 11 10 10 8 7 6 5
15 13 14 11 11 10 12 12 11 8 7 8 7 5 5 6 8 9 8 8 9 8 9 10 9 9 7 6 9 16 16 16 16 15 14 14 13 12 11 10 9 8 7
16 15 16 14 13 12 11 13 13 14 10 9 9 7 6 6 3 5 9 8 9 8 9 9 11 11 10 8 8 13 17 17 17 17 16 16 15 14 13 12 11 10 9
17 17 17 16 15 13 13 14 14 12 13 10 9 10 10 6 6 4 5 7 9 10 11 9 10 11 12 10 10 11 13 16 17 17 17 17 17 16 15 15 13 12 10
17 18 17 16 16 14 15 15 14 14 12 12 10 8 10 10 11 8 8 6 7 8 10 11 9 10 11 11 10 13 16 17 17 16 17 18 18 17 17 16 15 13 12
13 18 18 17 16 15 16 16 15 17 14 15 12 11 10 9 10 11 12 11 9 8 9 9 10 9 9 10 13 15 17 19 20 18 18 18 18 18 18 17 15 15 13
13 17 17 17 16 16 16 15 15 16 17 17 15 12 12 12 10 10 11 11 11 8 7 7 9 9 9 9 10 15 16 19 21 21 20 19 19 19 18 17 16 15 14
15 17 18 17 18 17 16 15 13 15 14 16 17 16 12 12 11 11 11 10 10 9 9 10 7 10 10 9 11 14 12 19 22 22 21 20 20 19 18 18 17 16 14
14 17 17 17 18 17 17 16 13 15 14 15 15 16 14 12 11 11 10 11 11 12 12 11 8 9 9 8 11 10 11 15 20 21 20 20 20 20 19 19 18 17 16
17 16 16 17 17 16 16 16 13 14 15 14 12 14 15 12 11 10 10 10 11 12 13 8 7 6 8 7 10 10 11 13 15 18 19 19 19 19 19 19 18 17 16
17 17 16 16 16 16 16 15 15 14 16 15 14 15 16 14 11 10 10 10 10 11 14 11 6 4 7 8 7 8 8 8 8 15 18 18 19 19 19 19 18 18 17
16 16 16 16 16 16 16 16 16 16 16 16 16 15 16 12 15 12 10 12 11 11 11 13 7 4 6 7 6 6 6 5 6 11 17 19 19 19 19 19 18 17 16
16 15 15 16 16 16 16 16 16 16 16 16 15 16 16 15 15 12 12 11 9 8 9 10 8 4 3 3 3 3 4 5 6 8 14 17 19 18 18 19 18 17 16
15 15 15 15 15 14 15 14 14 15 15 14 14 14 14 14 14 13 11 11 9 9 8 8 7 3 3 3 3 4 5 5 5 5 9 10 13 16 18 18 18 16 16
13 12 12 12 12 12 11 12 13 13 13 13 12 12 12 12 13 11 9 9 9 8 7 6 6 3 4 4 5 5 5 4 4 5 5 6 7 7 10 14 15 15 16
11 10 11 11 11 9 11 14 13 11 11 12 11 10 10 10 12 13 13 13 11 10 8 7 6 6 6 6 5 5 5 4 4 5 6 5 5 6 6 6 13 17 18
10 10 11 11 11 11 13 14 15 11 11 10 10 9 7 6 9 8 9 11 10 11 11 8 7 7 6 7 7 7 6 5 4 4 5 4 5 7 5 7 15 16 17
9 9 10 10 9 9 12 13 14 12 10 9 9 8 8 7 7 7 6 6 5 5 6 6 6 5 4 5 7 6 6 4 3 2 4 4 4 4 4 5 12 15 16
8 8 6 8 8 8 10 11 11 7 7 7 6 6 7 7 8 10 7 6 5 3 2 4 4 3 5 7 8 6 6 4 3 3 4 3 2 2 2 4 7 13 14
7 6 5 5 6 6 7 9 10 5 6 5 4 4 5 7 8 10 7 7 6 5 4 3 3 4 4 6 8 6 6 5 3 3 5 4 3 3 2 2 3 5 7
Wind_Direction
188 187 187 186 189 185 186 186 183 176 178 178 181 184 184 183 187 192 127 80 43 43 81 127 132 131 131 133 132 129 124 121 117 112 107 103 98 93 88 85 80 75 69
192 192 194 194 195 194 195 196 193 190 192 192 196 200 207 204 208 217 210 154 117 32 349 181 166 156 149 153 154 152 146 140 135 129 125 120 114 107 100 92 87 81 74
200 199 200 201 200 197 196 199 197 201 202 202 207 208 214 220 222 223 223 227 201 176 207 205 190 186 180 179 177 173 168 162 158 156 154 149 140 133 124 113 102 93 84
205 203 205 206 202 198 200 203 203 205 208 211 214 212 216 219 225 227 228 227 226 217 201 202 210 208 208 208 198 192 186 184 181 179 178 176 171 167 157 143 133 121 104
207 208 210 209 202 204 206 206 211 214 216 216 221 224 226 229 228 227 231 229 227 224 224 202 212 221 221 220 213 205 200 200 197 196 196 196 194 191 183 173 167 158 141
208 211 212 211 206 209 210 210 214 216 225 221 220 232 237 237 234 231 231 228 226 225 226 223 218 217 224 224 219 215 212 210 209 208 207 206 205 203 198 193 190 188 181
208 211 213 212 208 213 214 213 214 216 218 212 219 235 239 236 236 232 229 228 224 223 226 225 227 227 219 220 224 224 223 219 216 214 214 213 212 212 208 205 203 201 201
211 210 213 213 210 215 217 215 213 216 214 204 214 227 246 233 225 227 225 227 229 223 225 226 227 227 228 223 222 226 229 227 223 219 218 217 217 217 216 214 211 211 211
213 213 214 215 213 214 217 215 212 216 217 210 218 219 230 241 229 210 221 224 226 226 227 224 226 227 227 227 226 225 228 230 228 225 221 220 219 219 219 218 217 217 217
215 215 216 215 215 214 218 217 215 217 220 218 214 229 241 259 249 247 214 221 225 229 229 226 226 226 225 226 227 227 223 225 228 228 227 224 222 222 221 221 220 220 221
214 216 217 216 217 217 219 218 214 215 218 222 216 212 226 237 243 253 258 236 223 228 229 229 228 227 225 225 227 224 219 222 224 225 226 227 226 225 226 224 222 222 222
212 215 216 217 218 219 219 219 217 216 218 223 224 219 215 218 220 228 243 250 249 239 225 225 226 226 225 225 228 224 219 221 222 222 223 226 228 228 228 229 227 225 224
213 214 212 216 218 220 220 218 218 220 220 222 224 225 225 230 233 234 242 251 256 255 236 228 226 225 225 225 227 219 221 223 225 224 222 222 226 227 228 230 230 227 226
218 216 212 215 218 220 221 219 220 222 222 223 227 228 230 230 231 232 239 249 258 257 244 238 222 221 224 223 226 215 223 221 225 226 224 223 223 225 226 228 230 227 226
220 217 214 214 217 219 220 220 221 222 222 225 228 229 231 233 232 231 232 234 245 260 260 248 232 214 218 220 217 219 224 221 223 228 227 225 223 223 224 225 226 227 225
220 217 216 215 216 217 218 220 222 224 224 225 226 229 231 232 233 231 231 232 234 248 262 259 250 224 203 213 213 217 222 219 220 223 224 225 226 225 225 224 226 228 227
221 219 216 215 215 216 216 218 221 222 225 228 226 228 232 231 232 231 229 229 231 235 253 262 253 234 207 210 211 214 216 216 216 216 220 222 224 224 223 222 224 226 227
221 219 217 216 216 217 216 217 221 222 225 228 228 228 231 230 231 231 230 230 232 231 242 257 249 223 217 210 209 208 208 211 213 211 216 222 224 223 221 222 222 225 226
222 219 217 216 217 217 217 219 221 223 225 228 228 228 230 228 231 230 230 232 233 231 235 248 253 226 195 168 184 198 206 215 215 216 218 222 223 224 222 221 221 221 222
221 219 217 218 218 217 218 217 220 224 227 228 229 229 230 229 231 230 230 232 231 232 232 238 245 226 180 155 169 192 208 209 213 208 218 221 222 221 222 221 220 219 218
219 218 216 217 216 216 215 213 215 221 225 228 228 229 230 229 229 228 226 226 224 231 229 230 237 223 192 178 198 189 205 194 202 199 208 211 210 214 215 221 219 217 219
216 215 214 213 214 213 207 205 209 217 221 225 229 228 227 223 227 227 229 228 224 227 230 227 230 226 217 200 186 179 179 178 210 192 199 208 200 211 210 212 215 215 217
211 212 214 213 215 215 204 202 206 215 220 223 225 225 225 221 219 224 224 227 231 230 228 225 228 225 210 193 179 184 190 192 198 159 179 200 192 215 209 214 214 216 218
208 211 212 212 215 215 202 202 203 214 222 222 220 217 216 215 210 205 207 213 216 221 221 223 229 226 205 178 178 179 170 146 103 137 176 201 191 209 203 212 219 219 222
207 208 204 205 209 211 198 197 194 208 217 221 217 212 210 213 206 197 195 199 201 215 209 194 196 181 164 160 155 141 147 152 173 181 186 203 179 189 203 214 218 223 226
204 193 194 201 203 207 192 190 190 202 211 210 203 205 210 208 199 192 195 192 199 200 170 141 130 129 134 148 158 165 166 167 160 183 179 185 164 166 210 204 210 217 225